Terminal Aerodrome Forecast
Issued by NWS

Home | Current Version | Previous Version | Text Only | Print | Product List | Glossary On
Versions: 1 2 3 4 5 6 7 8 9 10 11 12 13 14 15 16 17 18 19 20 21 22 23 24 25 26 27 28 29 30 31 32 33 34 35 36 37 38 39 40 41 42 43 44 45 46 47 48 49 50
000
FTUS41 KCTP 302357
TAFLNS
TAF
KLNS 302357Z 3100/3124 13006KT 5SM -SHRA BR BKN015 OVC120
     FM310200 14005KT 2SM BR BKN015 OVC120
     FM310700 VRB02KT 1SM BR VCFG SCT120
      TEMPO 3108/3112 1/2SM FG VV002
     FM311300 VRB02KT 3SM BR SKC
     FM311500 25005KT P6SM SCT050=

USA.gov is the U.S. government's official web portal to all federal, state and local government web resources and services.